GLOBALSTAR M082 [+]

Last updated on July 6, 2021, 3:36 p.m. UTC

1 38042U 11080C   21187.13836278 -.00000104  00000-0  14781-5 0  9996
2 38042  52.0086  75.0012 0000437  31.1460 124.4791 12.62265743441559
UTC
Height (km)
Latitude
Longitude
Inclination
Orbital Period
UTC large
Height (km)
Speed (km/s)
/
Latitude / Longitude
Inclination (degrees)
Orbital Period (minutes)
Azimuth
Elevation
Range (km)
Doppler Factor
iOS Compass Heading
iOS Angle